TimeCDT,TemperatureF,Dew PointF,Humidity,Sea Level PressureIn,VisibilityMPH,Wind Direction,Wind SpeedMPH,Gust SpeedMPH,PrecipitationIn,Events,Conditions,WindDirDegrees,DateUTC
12:08 AM,61.0,49.1,65,-9999,-9999.0,South,8.1,-,N/A,,Unknown,170,2012-10-04 05:08:00
12:28 AM,66.0,47.1,50,-9999,-9999.0,WNW,15.0,-,N/A,,Unknown,290,2012-10-04 05:28:00
12:48 AM,68.0,48.0,49,-9999,-9999.0,NW,8.1,-,N/A,,Unknown,310,2012-10-04 05:48:00
1:08 AM,61.0,36.1,40,-9999,-9999.0,North,25.3,-,N/A,,Unknown,350,2012-10-04 06:08:00
1:28 AM,57.9,34.2,41,-9999,-9999.0,North,19.6,-,N/A,,Unknown,360,2012-10-04 06:28:00
1:48 AM,57.0,34.2,42,-9999,-9999.0,North,23.0,-,N/A,,Unknown,360,2012-10-04 06:48:00
2:08 AM,-9999,-9999,N/A,-9999,-9999.0,North,-9999.0,-,N/A,,Unknown,0,2012-10-04 07:08:00
2:28 AM,53.1,31.1,43,-9999,-9999.0,North,21.9,-,N/A,,Unknown,350,2012-10-04 07:28:00
2:48 AM,52.0,31.1,45,-9999,-9999.0,NNW,18.4,-,N/A,,Unknown,340,2012-10-04 07:48:00
3:08 AM,51.1,31.1,46,-9999,-9999.0,North,23.0,-,N/A,,Unknown,350,2012-10-04 08:08:00
3:28 AM,50.0,30.0,46,-9999,-9999.0,NNW,20.7,-,N/A,,Unknown,340,2012-10-04 08:28:00
3:48 AM,48.9,30.0,48,-9999,-9999.0,North,23.0,-,N/A,,Unknown,350,2012-10-04 08:48:00
4:08 AM,48.9,29.1,46,-9999,-9999.0,NNW,24.2,-,N/A,,Unknown,340,2012-10-04 09:08:00
4:28 AM,48.0,30.0,50,-9999,-9999.0,NNW,19.6,-,N/A,,Unknown,340,2012-10-04 09:28:00
4:48 AM,48.0,29.1,48,-9999,-9999.0,North,24.2,-,N/A,,Unknown,350,2012-10-04 09:48:00
5:08 AM,48.0,26.1,42,-9999,-9999.0,NNW,19.6,-,N/A,,Unknown,340,2012-10-04 10:08:00
5:28 AM,46.9,27.1,46,-9999,-9999.0,NNW,18.4,-,N/A,,Unknown,340,2012-10-04 10:28:00
5:48 AM,46.9,27.1,46,-9999,-9999.0,NNW,23.0,-,N/A,,Unknown,340,2012-10-04 10:48:00
6:08 AM,46.0,26.1,46,-9999,-9999.0,NNW,23.0,-,N/A,,Unknown,340,2012-10-04 11:08:00
6:28 AM,45.0,26.1,48,-9999,-9999.0,NNW,20.7,-,N/A,,Unknown,330,2012-10-04 11:28:00
6:48 AM,45.0,26.1,48,-9999,-9999.0,NNW,17.3,-,N/A,,Unknown,340,2012-10-04 11:48:00
7:08 AM,44.1,26.1,49,-9999,-9999.0,NNW,17.3,-,N/A,,Unknown,340,2012-10-04 12:08:00
7:28 AM,43.0,25.2,49,-9999,-9999.0,NNW,13.8,-,N/A,,Unknown,330,2012-10-04 12:28:00
7:48 AM,42.1,25.2,51,-9999,-9999.0,NNW,13.8,-,N/A,,Unknown,340,2012-10-04 12:48:00
8:08 AM,42.1,25.2,51,-9999,-9999.0,NNW,13.8,-,N/A,,Unknown,340,2012-10-04 13:08:00
8:28 AM,42.1,25.2,51,-9999,-9999.0,NNW,13.8,-,N/A,,Unknown,340,2012-10-04 13:28:00
8:48 AM,43.0,24.1,47,-9999,-9999.0,NNW,13.8,-,N/A,,Unknown,330,2012-10-04 13:48:00
9:08 AM,43.0,25.2,49,-9999,-9999.0,NNW,15.0,-,N/A,,Unknown,330,2012-10-04 14:08:00
9:28 AM,44.1,24.1,45,-9999,-9999.0,NNW,17.3,-,N/A,,Unknown,340,2012-10-04 14:28:00
9:48 AM,44.1,26.1,49,-9999,-9999.0,NNW,16.1,-,N/A,,Unknown,340,2012-10-04 14:48:00
10:08 AM,45.0,25.2,46,-9999,-9999.0,NNW,20.7,-,N/A,,Unknown,340,2012-10-04 15:08:00
10:28 AM,46.0,27.1,48,-9999,-9999.0,North,16.1,-,N/A,,Unknown,360,2012-10-04 15:28:00
10:48 AM,46.9,27.1,46,-9999,-9999.0,North,16.1,-,N/A,,Unknown,350,2012-10-04 15:48:00
11:08 AM,48.0,26.1,42,-9999,-9999.0,North,17.3,-,N/A,,Unknown,350,2012-10-04 16:08:00
11:28 AM,48.0,27.1,44,-9999,-9999.0,North,15.0,-,N/A,,Unknown,350,2012-10-04 16:28:00
11:48 AM,48.9,28.0,44,-9999,-9999.0,North,13.8,-,N/A,,Unknown,350,2012-10-04 16:48:00
12:08 PM,50.0,29.1,45,-9999,-9999.0,North,16.1,-,N/A,,Unknown,360,2012-10-04 17:08:00
12:28 PM,51.1,28.0,41,-9999,-9999.0,North,12.7,-,N/A,,Unknown,360,2012-10-04 17:28:00
12:48 PM,52.0,29.1,41,-9999,-9999.0,North,13.8,-,N/A,,Unknown,10,2012-10-04 17:48:00
1:08 PM,53.1,28.0,38,-9999,-9999.0,North,11.5,-,N/A,,Unknown,360,2012-10-04 18:08:00
1:28 PM,54.0,30.0,40,-9999,-9999.0,North,10.4,-,N/A,,Unknown,360,2012-10-04 18:28:00
1:48 PM,54.0,29.1,39,-9999,-9999.0,North,12.7,-,N/A,,Unknown,10,2012-10-04 18:48:00
2:08 PM,55.0,30.0,38,-9999,-9999.0,North,12.7,-,N/A,,Unknown,10,2012-10-04 19:08:00
2:28 PM,55.9,31.1,39,-9999,-9999.0,North,6.9,-,N/A,,Unknown,360,2012-10-04 19:28:00
2:48 PM,55.9,31.1,39,-9999,-9999.0,NNE,4.6,-,N/A,,Unknown,30,2012-10-04 19:48:00
3:08 PM,55.9,30.0,37,-9999,-9999.0,NE,8.1,-,N/A,,Unknown,40,2012-10-04 20:08:00
3:28 PM,57.0,30.0,36,-9999,-9999.0,ENE,8.1,-,N/A,,Unknown,60,2012-10-04 20:28:00
3:48 PM,57.0,31.1,37,-9999,-9999.0,NNE,5.8,-,N/A,,Unknown,20,2012-10-04 20:48:00
4:08 PM,57.0,30.0,36,-9999,-9999.0,ENE,4.6,-,N/A,,Unknown,60,2012-10-04 21:08:00
4:28 PM,57.0,30.0,36,-9999,-9999.0,ENE,6.9,-,N/A,,Unknown,60,2012-10-04 21:28:00
4:48 PM,57.9,29.1,33,-9999,-9999.0,ENE,10.4,-,N/A,,Unknown,70,2012-10-04 21:48:00
5:08 PM,57.9,31.1,36,-9999,-9999.0,NE,9.2,-,N/A,,Unknown,40,2012-10-04 22:08:00
5:28 PM,57.9,30.0,35,-9999,-9999.0,East,8.1,-,N/A,,Unknown,80,2012-10-04 22:28:00
5:48 PM,57.0,29.1,35,-9999,-9999.0,East,8.1,-,N/A,,Unknown,80,2012-10-04 22:48:00
6:08 PM,55.9,30.0,37,-9999,-9999.0,East,6.9,-,N/A,,Unknown,100,2012-10-04 23:08:00
6:28 PM,55.9,29.1,36,-9999,-9999.0,East,10.4,-,N/A,,Unknown,80,2012-10-04 23:28:00
6:48 PM,55.9,30.0,37,-9999,-9999.0,ENE,6.9,-,N/A,,Unknown,70,2012-10-04 23:48:00
7:08 PM,55.0,30.0,38,-9999,-9999.0,East,8.1,-,N/A,,Unknown,100,2012-10-05 00:08:00
7:28 PM,53.1,30.0,41,-9999,-9999.0,ENE,5.8,-,N/A,,Unknown,70,2012-10-05 00:28:00
7:48 PM,51.1,30.0,44,-9999,-9999.0,ENE,5.8,-,N/A,,Unknown,60,2012-10-05 00:48:00
8:08 PM,50.0,30.0,46,-9999,-9999.0,ENE,5.8,-,N/A,,Unknown,60,2012-10-05 01:08:00
8:28 PM,50.0,29.1,45,-9999,-9999.0,ENE,5.8,-,N/A,,Unknown,70,2012-10-05 01:28:00
8:48 PM,48.9,30.0,48,-9999,-9999.0,ENE,4.6,-,N/A,,Unknown,70,2012-10-05 01:48:00
9:08 PM,48.0,30.0,50,-9999,-9999.0,ENE,5.8,-,N/A,,Unknown,70,2012-10-05 02:08:00
9:28 PM,46.9,29.1,50,-9999,-9999.0,ENE,6.9,-,N/A,,Unknown,70,2012-10-05 02:28:00
9:48 PM,46.9,30.0,52,-9999,-9999.0,ENE,5.8,-,N/A,,Unknown,70,2012-10-05 02:48:00
10:08 PM,46.0,30.0,54,-9999,-9999.0,East,5.8,-,N/A,,Unknown,80,2012-10-05 03:08:00
10:28 PM,46.0,30.0,54,-9999,-9999.0,ENE,4.6,-,N/A,,Unknown,70,2012-10-05 03:28:00
10:48 PM,45.0,30.0,56,-9999,-9999.0,East,5.8,-,N/A,,Unknown,80,2012-10-05 03:48:00
11:08 PM,45.0,30.0,56,-9999,-9999.0,East,6.9,-,N/A,,Unknown,80,2012-10-05 04:08:00
11:28 PM,44.1,29.1,56,-9999,-9999.0,East,6.9,-,N/A,,Unknown,80,2012-10-05 04:28:00
11:48 PM,44.1,30.0,58,-9999,-9999.0,East,8.1,-,N/A,,Unknown,80,2012-10-05 04:48:00